Location: Oshawa
(43.9000°N, 78.8670°W)
Time: 09:34:25
(UTC-04:00)

Explorer 7 - Visible Passes

Search period start: 21 October 2014 00:00
Search period end: 31 October 2014 00:00
Orbit: 491 x 705 km, 50.3° (Epoch: 20 October)

Date Brightness Start Highest point End Pass type
(mag) Time Alt. Az. Time Alt. Az. Time Alt. Az.
21 Oct 7.9 05:40:04 30° SSW 05:41:52 46° SE 05:46:30 10° ENE visible
22 Oct 10.0 04:13:34 12° ESE 04:13:34 12° ESE 04:14:21 10° E visible
22 Oct 7.2 05:50:15 39° SW 05:51:53 73° SSE 05:56:43 10° ENE visible
23 Oct 9.6 04:23:38 18° E 04:23:38 18° E 04:25:17 10° E visible
23 Oct 7.1 06:00:18 39° WSW 06:01:59 77° NNW 06:06:51 10° ENE visible
24 Oct 9.3 04:33:35 24° E 04:33:35 24° E 04:35:43 10° ENE visible
24 Oct 7.4 06:10:15 32° W 06:12:09 57° NNW 06:16:58 10° ENE visible
25 Oct 8.9 04:43:27 30° ENE 04:43:27 30° ENE 04:45:55 10° ENE visible
25 Oct 7.7 06:20:07 25° WNW 06:22:24 45° NNW 06:27:06 10° ENE visible
26 Oct 8.6 04:53:15 34° NE 04:53:15 34° NE 04:56:01 10° ENE visible
26 Oct 8.0 06:29:54 20° WNW 06:32:40 39° N 06:37:17 10° ENE visible
27 Oct 8.4 05:03:00 37° NE 05:03:00 37° NE 05:06:05 10° ENE visible
27 Oct 8.1 06:39:39 16° WNW 06:42:58 38° N 06:47:33 10° ENE visible
28 Oct 8.2 05:12:43 38° NNE 05:12:43 38° NNE 05:16:11 10° ENE visible
28 Oct 8.1 06:49:22 13° WNW 06:53:15 39° N 06:57:52 10° ENE visible
29 Oct 8.1 05:22:24 37° NNE 05:22:24 37° NNE 05:26:19 10° ENE visible
29 Oct 8.0 06:59:02 10° WNW 07:03:29 44° NNE 07:08:13 10° E visible
30 Oct 8.1 05:32:04 37° N 05:32:04 37° N 05:36:32 10° ENE visible
30 Oct 7.7 07:09:01 10° WNW 07:13:39 55° NNE 07:18:31 10° E visible
